DW4212 Weather Reports


time (UTC)temp
C
wind
direction
speed
KPH
gust
KPH
rain 1hr
cm
rain 24hr
cm
rain mn
cm
humidity
%
barometer
mb
20260503202934 12 55 0.0 9.7 0.00 2.39 0.48 74 1013.7
20260503201943 12 254 0.0 0.0 0.00 2.39 0.48 73 1013.5
20260503200933 12 254 0.0 0.0 0.00 2.39 0.48 72 1013.4
20260503195941 13 254 0.0 0.0 0.00 2.39 0.48 73 1013.3
20260503194950 13 254 0.0 0.0 0.00 2.39 0.48 72 1013.1
20260503193938 13 252 0.0 6.4 0.00 2.39 0.48 71 1013.0
20260503192942 13 248 1.6 8.0 0.00 2.39 0.48 71 1012.9
20260503191951 13 246 0.0 0.0 0.00 2.39 0.48 71 1012.8
20260503190943 14 244 0.0 0.0 0.00 2.39 0.48 70 1012.7
20260503185947 14 244 0.0 0.0 0.00 2.39 0.48 69 1012.6
20260503184934 14 244 0.0 0.0 0.00 2.39 0.48 68 1012.4
20260503183943 15 256 0.0 0.0 0.00 2.39 0.48 67 1012.4
20260503182945 15 255 1.6 9.7 0.00 2.39 0.48 66 1012.4
20260503182033 15 196 0.0 17.7 0.00 2.39 0.48 65 1012.4
20260503180939 15 212 0.0 14.5 0.00 2.39 0.48 65 1012.4
20260503175946 15 192 0.0 11.3 0.00 2.39 0.48 64 1012.3
20260503174934 15 184 0.0 6.4 0.00 2.39 0.48 64 1012.1
20260503173943 16 192 0.0 11.3 0.00 2.39 0.48 63 1012.1
20260503172945 16 195 0.0 14.5 0.00 2.39 0.48 61 1012.2
20260503170942 16 254 1.6 16.1 0.00 2.39 0.48 60 1012.2
20260503150943 17 267 3.2 11.3 0.00 3.81 0.48 60 1012.2
20260503130914 16 234 6.4 20.9 0.00 3.91 0.48 64 1013.0
20260503080920 10 222 0.0 0.0 0.71 9.50 0.43 93 1015.1
20260503072921 9 222 0.0 0.0 1.19 10.39 0.43 93 1014.9
20260503071913 10 221 0.0 0.0 1.30 10.11 0.38 93 1014.9
20260503070920 10 221 0.0 0.0 1.30 9.60 0.28 93 1015.3
20260503054916 10 221 0.0 0.0 0.00 10.39 0.00 93 1014.8
20260503053925 10 221 0.0 0.0 0.00 10.39 0.00 93 1014.7
20260503052925 10 221 0.0 0.0 0.00 10.39 0.00 93 1014.7
20260503051919 10 221 0.0 0.0 0.00 10.39 0.00 93 1014.8
20260503050927 10 221 0.0 0.0 0.00 10.39 0.00 92 1014.8
20260503045930 10 221 0.0 0.0 0.00 10.39 0.00 92 1014.8
20260503044919 10 221 0.0 0.0 0.00 10.39 0.00 93 1014.9
20260503043912 10 221 0.0 0.0 0.00 10.39 0.00 93 1014.9
20260503042912 10 221 0.0 0.0 0.00 10.39 0.00 92 1014.9
20260503041922 9 221 0.0 0.0 0.00 10.39 0.00 92 1014.9
20260503040915 9 221 0.0 0.0 0.00 10.39 0.00 92 1015.0
20260503035916 9 221 0.0 0.0 0.00 10.39 0.00 92 1015.0
20260503034926 9 221 0.0 0.0 0.00 10.39 0.00 92 1015.2
20260503033914 9 221 0.0 0.0 0.00 10.39 0.00 92 1015.3
20260503032920 9 221 0.0 0.0 0.00 10.39 0.00 92 1015.4
20260503031929 9 221 0.0 0.0 0.00 10.39 0.00 92 1015.5
20260503030918 9 221 0.0 0.0 0.00 10.39 0.00 92 1015.4
20260503025920 9 221 0.0 0.0 0.00 10.39 0.00 92 1015.4
20260503024912 9 221 0.0 0.0 0.00 10.39 0.00 92 1015.4
20260503023920 10 221 0.0 0.0 0.00 10.39 0.00 92 1015.5
20260503022922 10 221 0.0 0.0 0.00 10.39 0.00 92 1015.7
20260503021912 10 221 0.0 0.0 0.00 10.39 0.00 92 1015.7
20260503020914 10 221 0.0 0.0 0.00 10.39 0.00 92 1015.7
20260503015916 10 221 0.0 0.0 0.00 10.39 0.00 92 1015.7
20260503014925 10 221 0.0 0.0 0.00 10.39 0.00 92 1015.8
20260503013915 10 221 0.0 0.0 0.00 10.39 0.00 92 1015.8
20260503012926 10 221 0.0 0.0 0.00 10.39 0.00 92 1015.8
20260503011914 10 221 0.0 0.0 0.00 10.39 0.00 91 1016.0
20260503010925 10 221 0.0 0.0 0.00 10.39 0.00 92 1016.0
20260503005926 10 221 0.0 0.0 0.00 10.39 0.00 91 1016.2
20260503004920 10 221 0.0 0.0 0.00 10.39 0.00 91 1016.2
20260503003930 10 221 0.0 0.0 0.00 10.39 0.00 91 1016.2
20260503002930 10 221 0.0 0.0 0.00 10.39 0.00 91 1016.2
20260503001919 10 221 0.0 0.0 0.00 10.39 0.00 91 1016.4
20260503000912 10 221 0.0 0.0 0.00 10.39 0.00 91 1016.4
20260502235915 10 221 0.0 0.0 0.00 10.39 2.08 91 1016.4
20260502234924 10 221 0.0 0.0 0.00 10.39 2.08 91 1016.8
20260502233913 10 221 0.0 0.0 0.00 10.39 2.08 90 1016.8
20260502232919 10 221 0.0 0.0 0.00 10.39 2.08 90 1016.9
20260502231929 10 221 0.0 0.0 0.00 10.39 2.08 90 1016.9
20260502230914 10 221 0.0 0.0 0.00 10.39 2.08 90 1016.9
20260502225917 10 221 0.0 0.0 0.00 10.39 2.08 90 1016.9
20260502224930 10 221 0.0 0.0 0.00 10.39 2.08 90 1016.9
20260502223919 10 221 0.0 0.0 0.00 10.39 2.08 90 1016.8
20260502222921 10 221 0.0 0.0 0.00 10.39 2.08 90 1016.8
20260502221914 10 221 0.0 0.0 0.00 10.39 2.08 90 1016.9
20260502220923 10 221 0.0 0.0 0.00 10.39 2.08 90 1017.0
20260502215925 10 221 0.0 0.0 0.00 10.39 2.08 89 1017.1
20260502214914 10 221 0.0 0.0 0.00 10.39 2.08 89 1017.2
20260502213928 10 221 0.0 0.0 0.00 10.39 2.08 89 1017.2
20260502212928 10 221 0.0 0.0 0.00 10.39 2.08 89 1017.2
20260502211958 10 221 0.0 0.0 0.00 10.39 2.08 89 1017.1
20260502210919 10 221 0.0 0.0 0.00 10.39 2.08 88 1017.1
20260502205921 11 221 0.0 0.0 0.00 10.39 2.08 88 1017.1
20260502204913 11 221 0.0 0.0 0.00 10.39 2.08 88 1016.9
20260502203920 11 221 0.0 0.0 0.00 10.39 2.08 88 1016.7